Regional Weather Roundup
Issued by NWS Upton, NY

Current Version | Previous Version | Graphics & Text | Print | Product List | Glossary Off
Versions: 1 2 3 4 5 6 7 8 9 10 11 12 13 14 15 16 17 18 19 20 21 22 23 24 25 26 27 28 29 30 31 32 33 34 35 36 37 38 39 40 41 42 43 44 45 46 47 48 49 50

000
ASUS41 KOKX 281509
RWROKX

REGIONAL WEATHER ROUNDUP
NATIONAL WEATHER SERVICE NEW YORK NY
1100 AM EDT SUN MAY 28 2017

NOTE: "FAIR" INDICATES FEW OR NO CLOUDS BELOW 12,000 FEET WITH NO
SIGNIFICANT WEATHER AND/OR OBSTRUCTIONS TO VISIBILITY.

NYZ071-072-176-178-NJZ106-104-281600-
NEW YORK CITY METRO AREA

CITY           SKY/WX    TMP DP  RH WIND       PRES   REMARKS
Central Park   MOSUNNY   67  58  72 VRB5      29.96S
Wall St Helipt CLOUDY    69  58  67 S7        29.95R
Bronx Bot Gard   N/A     68  57  68 S3        29.95F
LaGuardia APRT CLOUDY    69  57  65 VRB6      29.93R
Kennedy INTL   CLOUDY    66  59  78 S10       29.95S
Breezy Point     N/A     61 N/A N/A SE7         N/A
Newark/Liberty PTSUNNY   67  59  75 SE8       29.93S
Teterboro      MOSUNNY   69  59  70 SE7       29.92S
$$

NYZ177-179-078>081-281600-
LONG ISLAND NEW YORK

CITY           SKY/WX    TMP DP  RH WIND       PRES   REMARKS
Jones Beach      N/A     61 N/A N/A SE6         N/A
Matinecock PT  NOT AVBL
Farmingdale    CLOUDY    65  58  78 S9        29.96R
MacArthur/ISP  PTSUNNY   66  57  72 S12       29.96R
Shirley        SUNNY     65  57  75 SE13      29.97R
Mt Sinai Harb    N/A    N/A N/A N/A NE2G8       N/A
Westhampton    SUNNY     64  53  67 S8        29.99R
East Hampton     N/A     61  52  70 S8        29.97R
Montauk          N/A     62  55  77 VRB5      29.99S
$$

NYZ052-065-067-281600-
HUDSON VALLEY

CITY           SKY/WX    TMP DP  RH WIND       PRES   REMARKS
White Plains   CLOUDY    68  58  70 SE12      29.93F
Larchmont Harb   N/A     59 N/A N/A NE6         N/A
Croton O-T Hud   N/A     63 N/A N/A SW5         N/A
Newburgh       MOSUNNY   70  61  73 SE7       29.93F
Montgomery     PTSUNNY   71  57  61 CALM      29.91F
Poughkeepsie   CLOUDY    69  57  65 VRB5      29.90F
Albany         CLOUDY    69  56  62 E5        29.91F
$$

NJZ001-105-106-008-010-013-015-019>022-104-281600-
NEW JERSEY

CITY           SKY/WX    TMP DP  RH WIND       PRES   REMARKS
Newark/Liberty PTSUNNY   67  59  75 SE8       29.93S
Teterboro      MOSUNNY   69  59  70 SE7       29.92S
Caldwell       MOSUNNY   71  59  65 SE7       29.93S
Somerville     MOSUNNY   71  60  68 VRB5      29.90R
Linden           N/A     68  58  69 S7        29.94R
Perth Amboy      N/A     61 N/A N/A SE7         N/A
Sussex         CLOUDY    70  59  68 S6        29.91F
Andover          N/A     70  57  63 VRB3      29.91S
Trenton        MOSUNNY   72  61  68 VRB6      29.90F
Millville      MOSUNNY   71  62  73 SE9       29.92R
Atlantic City  CLOUDY    69  59  70 SE12      29.94R
Wrightstown    SUNNY     73  59  61 E10       29.89S
Toms River     SUNNY     69  58  67 SE12      29.94R
Belmar         SUNNY     67  58  72 SE12      29.96R
$$

PAZ047>061-062-071-281600-
EASTERN PENNSYLVANIA

CITY           SKY/WX    TMP DP  RH WIND       PRES   REMARKS
Philadelphia   MOSUNNY   75  60  59 E8        29.91S
Allentown      SUNNY     74  57  55 S8        29.90F
Scranton       MOSUNNY   74  52  46 VRB7      29.89S
$$

CTZ002-004>006-009-010-012-RIZ004-006-007-MAZ004-011-015-281600-
SOUTHERN NEW ENGLAND
 IN CT

CITY           SKY/WX    TMP DP  RH WIND       PRES   REMARKS
Bradley INTL   CLOUDY    68  57  68 SE5       29.94S
Hartford       CLOUDY    68  57  68 VRB5      29.94S
Danbury        CLOUDY    66  59  78 S7        29.94F
Wtrbury/Oxford PTSUNNY   66  54  63 SW7       29.96S
Bridgeport     MOSUNNY   64  57  78 E9        29.95S
Meriden        MOSUNNY   67  57  70 E5        29.95S
New Haven      MOSUNNY   65  56  72 VRB6      29.95F
Chester          N/A     66  55  68 S7G13     29.97R
Groton         PTSUNNY   61  52  72 S8        29.97S
Wilimantic     CLOUDY    66  56  70 S8        29.97R

 IN RI

CITY           SKY/WX    TMP DP  RH WIND       PRES   REMARKS
Providence     CLOUDY    64  55  72 SE12      29.97S
Block Island   CLOUDY    60  51  72 S14       29.99S
Westerly       CLOUDY    61  51  70 S8        29.98F
 IN MA

CITY           SKY/WX    TMP DP  RH WIND       PRES   REMARKS
Boston         MOSUNNY   64  57  78 SE8       29.96S
Worcester      CLOUDY    62  53  72 SE5       29.96S
Westfield      CLOUDY    66  58  75 VRB5      29.94
Provincetown   SUNNY     64  50  60 SE9       29.98F
Nantucket      SUNNY     57  46  66 SE13      29.99S
$$

ANZ330-335-338-340-345-350-353-355-281600-
COASTAL MARINE OBSERVATIONS


STATION/POSITION TIME  SKY/WX   TEMP    WIND        PRES    VSBY  WAVE
                                AIR SEA DIR/SP/G                  HT/PER
                 (UTC)          (F)     (DEG/KT/KT) (MB)    (MI)  (FT/S)
NY HARB ENTRANCE 1350            59 58  150/  6/  8 1013.7          2/ 8
20 S FIRE ISLAND 1450            58 57  140/ 10/ 12 1014.1          2/ 8
GREAT SOUTH BAY  NOT AVBL
23 SSW MONTAUK P 1350            56 55              1015.2          2/ 8
15 E BARNEGAT LI 1430               60                N/A           2/ 7
HUDSON CANYON    1350            57 55  130/  6/  8 1013.9          2/ 7
KINGS POINT      1442            61 59   50/  6/  7 1013.7
EXECUTION ROCKS  1445            62                   N/A
CENTRAL LI SOUND NOT AVBL
EASTERN LI SOUND NOT AVBL
ROBBINS REEF     1442            61     180/ 12/ 13 1014.2
$$


>>>>>>>>>>>>>>>>>>>>>>>>>>>> KEY <<<<<<<<<<<<<<<<<<<<<<<<<<<
>                                                          <
>     SKY/WX - Sky Condition/Present Weather               <
>     TMP    - Temperature in Fahrenheit                   <
>     DP     - Dew Point in Fahrenheit                     <
>     RH     - Relative Humidity in Percent                <
>     WIND   - Direction (from) and Speed in MPH           <
>     PRES   - Mean Sea Level Pressure (inches of Hg)      <
>     WCI    - Wind Chill Index                            <
>     VSB    - VISIBILITY IN MILES                         <
>     HX     - HEAT INDEX                                  <
>     TC     - TEMPERATURE IN CELSIUS                      <
>     VRB    - VARIABLE WIND DIRECTION                     <
>                                                          <
>>>>>>>>>>>>>>>>>>>>>>>>>>>> KEY <<<<<<<<<<<<<<<<<<<<<<<<<<<



USA.gov is the U.S. government's official web portal to all federal, state and local government web resources and services.